Time,TemperatureF,DewpointF,PressureIn,WindDirection,WindDirectionDegrees,WindSpeedMPH,WindSpeedGustMPH,Humidity,HourlyPrecipIn,Conditions,Clouds,dailyrainin,SoftwareType,DateUTC
2013-01-06 00:01:00,21.0,17.2,30.68,SE,135,0.0,0.0,85,0.00,,---,0.00,VWS V13.01,2013-01-06 08:01:00,
2013-01-06 00:06:00,21.0,17.5,30.68,SE,135,0.0,0.0,86,0.00,,---,0.00,VWS V13.01,2013-01-06 08:06:00,
2013-01-06 00:11:00,20.5,17.2,30.68,SE,135,0.0,0.0,87,0.00,,---,0.00,VWS V13.01,2013-01-06 08:11:00,
2013-01-06 00:16:00,20.3,17.1,30.68,SE,135,0.0,0.0,87,0.00,,---,0.00,VWS V13.01,2013-01-06 08:16:00,
2013-01-06 00:21:00,20.5,17.5,30.68,SE,135,0.0,0.0,88,0.00,,---,0.00,VWS V13.01,2013-01-06 08:21:00,
2013-01-06 00:26:00,20.7,17.9,30.68,SE,135,0.0,0.0,89,0.00,,---,0.00,VWS V13.01,2013-01-06 08:26:00,
2013-01-06 00:31:00,20.7,18.2,30.68,SE,135,0.0,0.0,90,0.00,,---,0.00,VWS V13.01,2013-01-06 08:31:00,
2013-01-06 00:36:00,20.7,18.2,30.68,SE,135,0.0,0.0,90,0.00,,---,0.00,VWS V13.01,2013-01-06 08:36:00,
2013-01-06 00:41:00,20.7,18.5,30.68,SE,135,0.0,2.2,91,0.00,,---,0.00,VWS V13.01,2013-01-06 08:41:00,
2013-01-06 00:46:00,20.3,18.1,30.68,SE,135,0.0,0.0,91,0.00,,---,0.00,VWS V13.01,2013-01-06 08:46:00,
2013-01-06 00:51:00,20.1,17.9,30.68,SE,135,0.0,0.0,91,0.00,,---,0.00,VWS V13.01,2013-01-06 08:51:00,
2013-01-06 00:56:00,20.3,18.4,30.68,SE,135,0.0,0.0,92,0.00,,---,0.00,VWS V13.01,2013-01-06 08:56:00,
2013-01-06 01:01:00,20.3,18.4,30.68,SE,135,0.0,0.0,92,0.00,,---,0.00,VWS V13.01,2013-01-06 09:01:00,
2013-01-06 01:06:00,20.3,18.6,30.68,SE,135,0.0,0.0,93,0.00,,---,0.00,VWS V13.01,2013-01-06 09:06:00,
2013-01-06 01:11:00,20.5,18.8,30.68,SE,135,0.0,0.0,93,0.00,,---,0.00,VWS V13.01,2013-01-06 09:11:00,
2013-01-06 01:16:00,20.5,19.0,30.68,SE,135,0.0,0.0,94,0.00,,---,0.00,VWS V13.01,2013-01-06 09:16:00,
2013-01-06 01:21:00,20.5,19.0,30.68,SE,135,0.0,0.0,94,0.00,,---,0.00,VWS V13.01,2013-01-06 09:21:00,
2013-01-06 01:26:00,20.5,19.0,30.68,SE,135,0.0,0.0,94,0.00,,---,0.00,VWS V13.01,2013-01-06 09:26:00,
2013-01-06 01:31:00,20.5,19.0,30.68,SE,135,0.0,0.0,94,0.00,,---,0.00,VWS V13.01,2013-01-06 09:31:00,
2013-01-06 01:36:00,20.3,18.9,30.68,SE,135,0.0,0.0,94,0.00,,---,0.00,VWS V13.01,2013-01-06 09:36:00,
2013-01-06 01:41:00,20.3,19.1,30.68,SE,135,0.0,0.0,95,0.00,,---,0.00,VWS V13.01,2013-01-06 09:41:00,
2013-01-06 01:46:00,20.7,19.5,30.68,SE,135,0.0,0.0,95,0.00,,---,0.00,VWS V13.01,2013-01-06 09:46:00,
2013-01-06 01:51:00,21.0,19.8,30.68,SE,135,0.0,0.0,95,0.00,,---,0.00,VWS V13.01,2013-01-06 09:51:00,
2013-01-06 01:56:00,21.2,20.2,30.68,SE,135,0.0,0.0,96,0.00,,---,0.00,VWS V13.01,2013-01-06 09:56:00,
2013-01-06 02:01:00,21.4,20.4,30.68,SE,135,0.0,0.0,96,0.00,,---,0.00,VWS V13.01,2013-01-06 10:01:00,
2013-01-06 02:06:00,21.9,21.0,30.68,SE,135,0.0,0.0,96,0.00,,---,0.00,VWS V13.01,2013-01-06 10:06:00,
2013-01-06 02:11:00,22.5,21.5,30.68,SE,135,2.2,2.7,96,0.00,,---,0.00,VWS V13.01,2013-01-06 10:11:00,
2013-01-06 02:16:00,22.6,21.4,30.68,SE,135,0.0,0.0,95,0.00,,---,0.00,VWS V13.01,2013-01-06 10:16:00,
2013-01-06 02:21:00,22.8,21.4,30.68,SE,135,2.2,2.7,94,0.00,,---,0.00,VWS V13.01,2013-01-06 10:21:00,
2013-01-06 02:26:00,22.8,21.1,30.68,SE,135,0.0,2.2,93,0.00,,---,0.00,VWS V13.01,2013-01-06 10:26:00,
2013-01-06 02:31:00,23.0,21.0,30.68,SE,135,0.0,2.7,92,0.00,,---,0.00,VWS V13.01,2013-01-06 10:31:00,
2013-01-06 02:36:00,23.0,20.8,30.68,SE,135,0.0,0.0,91,0.00,,---,0.00,VWS V13.01,2013-01-06 10:36:00,
2013-01-06 02:41:00,23.2,20.7,30.68,SE,135,2.2,2.2,90,0.00,,---,0.00,VWS V13.01,2013-01-06 10:41:00,
2013-01-06 02:46:00,23.2,20.4,30.68,SE,135,0.0,0.0,89,0.00,,---,0.00,VWS V13.01,2013-01-06 10:46:00,
2013-01-06 02:51:00,23.4,20.3,30.68,SE,135,0.0,3.1,88,0.00,,---,0.00,VWS V13.01,2013-01-06 10:51:00,
2013-01-06 02:56:00,23.5,20.5,30.71,SE,135,0.0,0.0,88,0.00,,---,0.00,VWS V13.01,2013-01-06 10:56:00,
2013-01-06 03:01:00,23.5,20.2,30.71,SE,135,0.0,0.0,87,0.00,,---,0.00,VWS V13.01,2013-01-06 11:01:00,
2013-01-06 03:06:00,23.5,20.2,30.71,SE,135,3.1,3.1,87,0.00,,---,0.00,VWS V13.01,2013-01-06 11:06:00,
2013-01-06 03:11:00,23.7,20.1,30.71,SE,135,0.0,0.0,86,0.00,,---,0.00,VWS V13.01,2013-01-06 11:11:00,
2013-01-06 03:16:00,23.7,19.6,30.71,SE,135,0.0,0.0,84,0.00,,---,0.00,VWS V13.01,2013-01-06 11:16:00,
2013-01-06 03:21:00,23.7,19.6,30.71,SE,135,0.0,2.2,84,0.00,,---,0.00,VWS V13.01,2013-01-06 11:21:00,
2013-01-06 03:26:00,23.9,19.5,30.71,SE,135,0.0,0.0,83,0.00,,---,0.00,VWS V13.01,2013-01-06 11:26:00,
2013-01-06 03:31:00,23.9,19.2,30.71,SE,135,0.0,0.0,82,0.00,,---,0.00,VWS V13.01,2013-01-06 11:31:00,
2013-01-06 03:36:00,23.9,18.9,30.71,SE,135,0.0,2.2,81,0.00,,---,0.00,VWS V13.01,2013-01-06 11:36:00,
2013-01-06 03:41:00,23.9,18.9,30.71,SE,135,0.0,0.0,81,0.00,,---,0.00,VWS V13.01,2013-01-06 11:41:00,
2013-01-06 03:46:00,23.9,18.9,30.71,SE,135,0.0,0.0,81,0.00,,---,0.00,VWS V13.01,2013-01-06 11:46:00,
2013-01-06 03:51:00,23.9,18.6,30.71,SE,135,0.0,0.0,80,0.00,,---,0.00,VWS V13.01,2013-01-06 11:51:00,
2013-01-06 03:56:00,24.1,18.8,30.71,SE,135,0.0,0.0,80,0.00,,---,0.00,VWS V13.01,2013-01-06 11:56:00,
2013-01-06 04:01:00,24.1,18.8,30.71,SE,135,0.0,0.0,80,0.00,,---,0.00,VWS V13.01,2013-01-06 12:01:00,
2013-01-06 04:06:00,24.1,18.8,30.71,SE,135,0.0,0.0,80,0.00,,---,0.00,VWS V13.01,2013-01-06 12:06:00,
2013-01-06 04:11:00,24.3,19.0,30.71,SE,135,0.0,0.0,80,0.00,,---,0.00,VWS V13.01,2013-01-06 12:11:00,
2013-01-06 04:16:00,24.3,19.0,30.71,SE,135,0.0,0.0,80,0.00,,---,0.00,VWS V13.01,2013-01-06 12:16:00,
2013-01-06 04:21:00,24.3,19.0,30.71,SE,135,0.0,0.0,80,0.00,,---,0.00,VWS V13.01,2013-01-06 12:21:00,
2013-01-06 04:26:00,24.3,19.0,30.71,SE,135,0.0,0.0,80,0.00,,---,0.00,VWS V13.01,2013-01-06 12:26:00,
2013-01-06 04:31:00,24.3,19.3,30.71,SE,135,0.0,0.0,81,0.00,,---,0.00,VWS V13.01,2013-01-06 12:31:00,
2013-01-06 04:36:00,24.3,19.3,30.71,SE,135,0.0,0.0,81,0.00,,---,0.00,VWS V13.01,2013-01-06 12:36:00,
2013-01-06 04:41:00,24.1,19.4,30.71,SE,135,2.7,2.7,82,0.00,,---,0.00,VWS V13.01,2013-01-06 12:41:00,
2013-01-06 04:46:00,24.1,19.7,30.71,SE,135,0.0,0.0,83,0.00,,---,0.00,VWS V13.01,2013-01-06 12:46:00,
2013-01-06 04:51:00,24.1,20.0,30.71,SE,135,3.1,3.1,84,0.00,,---,0.00,VWS V13.01,2013-01-06 12:51:00,
2013-01-06 04:56:00,24.1,20.0,30.68,SE,135,0.0,0.0,84,0.00,,---,0.00,VWS V13.01,2013-01-06 12:56:00,
2013-01-06 05:01:00,24.1,20.2,30.68,SE,135,0.0,2.2,85,0.00,,---,0.00,VWS V13.01,2013-01-06 13:01:00,
2013-01-06 05:06:00,24.1,20.2,30.68,SE,135,2.2,2.7,85,0.00,,---,0.00,VWS V13.01,2013-01-06 13:06:00,
2013-01-06 05:11:00,24.1,20.2,30.68,SE,135,0.0,2.2,85,0.00,,---,0.00,VWS V13.01,2013-01-06 13:11:00,
2013-01-06 05:16:00,24.3,20.7,30.68,SE,135,0.0,0.0,86,0.00,,---,0.00,VWS V13.01,2013-01-06 13:16:00,
2013-01-06 05:21:00,24.3,20.7,30.68,SE,135,2.2,2.7,86,0.00,,---,0.00,VWS V13.01,2013-01-06 13:21:00,
2013-01-06 05:26:00,24.3,20.7,30.68,SE,135,0.0,0.0,86,0.00,,---,0.00,VWS V13.01,2013-01-06 13:26:00,
2013-01-06 05:31:00,24.3,20.7,30.68,SE,135,0.0,0.0,86,0.00,,---,0.00,VWS V13.01,2013-01-06 13:31:00,
2013-01-06 05:36:00,24.3,20.7,30.68,SE,135,0.0,0.0,86,0.00,,---,0.00,VWS V13.01,2013-01-06 13:36:00,
2013-01-06 05:41:00,24.4,20.9,30.68,SE,135,0.0,2.2,86,0.00,,---,0.00,VWS V13.01,2013-01-06 13:41:00,
2013-01-06 05:46:00,24.4,20.9,30.68,SE,135,2.2,2.2,86,0.00,,---,0.00,VWS V13.01,2013-01-06 13:46:00,
2013-01-06 05:51:00,24.4,20.9,30.68,SE,135,2.7,2.7,86,0.00,,---,0.00,VWS V13.01,2013-01-06 13:51:00,
2013-01-06 05:56:00,24.4,20.9,30.68,SE,135,2.2,2.2,86,0.00,,---,0.00,VWS V13.01,2013-01-06 13:56:00,
2013-01-06 06:01:00,24.4,20.9,30.68,SE,135,0.0,2.7,86,0.00,,---,0.00,VWS V13.01,2013-01-06 14:01:00,
2013-01-06 06:06:00,24.4,20.9,30.65,SE,135,2.2,2.2,86,0.00,,---,0.00,VWS V13.01,2013-01-06 14:06:00,
2013-01-06 06:11:00,24.4,20.9,30.65,SE,135,2.2,2.2,86,0.00,,---,0.00,VWS V13.01,2013-01-06 14:11:00,
2013-01-06 06:16:00,24.4,20.9,30.65,SE,135,2.2,2.2,86,0.00,,---,0.00,VWS V13.01,2013-01-06 14:16:00,
2013-01-06 06:21:00,24.6,21.0,30.65,SE,135,2.2,2.2,86,0.00,,---,0.00,VWS V13.01,2013-01-06 14:21:00,
2013-01-06 06:26:00,24.8,21.2,30.68,SE,135,0.0,0.0,86,0.00,,---,0.00,VWS V13.01,2013-01-06 14:26:00,
2013-01-06 06:31:00,24.8,21.5,30.68,SE,135,0.0,0.0,87,0.00,,---,0.00,VWS V13.01,2013-01-06 14:31:00,
2013-01-06 06:36:00,25.0,21.4,30.68,SE,135,0.0,2.7,86,0.00,,---,0.00,VWS V13.01,2013-01-06 14:36:00,
2013-01-06 06:41:00,25.0,21.7,30.68,SE,135,0.0,0.0,87,0.00,,---,0.00,VWS V13.01,2013-01-06 14:41:00,
2013-01-06 06:46:00,25.0,21.7,30.68,SE,135,0.0,0.0,87,0.00,,---,0.00,VWS V13.01,2013-01-06 14:46:00,
2013-01-06 06:51:00,25.2,21.8,30.68,SE,135,0.0,0.0,87,0.00,,---,0.00,VWS V13.01,2013-01-06 14:51:00,
2013-01-06 06:56:00,25.2,21.8,30.68,SE,135,0.0,0.0,87,0.00,,---,0.00,VWS V13.01,2013-01-06 14:56:00,
2013-01-06 07:01:00,25.0,21.7,30.68,SE,135,0.0,0.0,87,0.00,,---,0.00,VWS V13.01,2013-01-06 15:01:00,
2013-01-06 07:06:00,25.0,21.7,30.68,SE,135,0.0,0.0,87,0.00,,---,0.00,VWS V13.01,2013-01-06 15:06:00,
2013-01-06 07:11:00,24.8,21.5,30.68,SE,135,0.0,0.0,87,0.00,,---,0.00,VWS V13.01,2013-01-06 15:11:00,
2013-01-06 07:16:00,24.8,21.5,30.68,SE,135,0.0,0.0,87,0.00,,---,0.00,VWS V13.01,2013-01-06 15:16:00,
2013-01-06 07:21:00,24.8,21.8,30.68,SE,135,0.0,0.0,88,0.00,,---,0.00,VWS V13.01,2013-01-06 15:21:00,
2013-01-06 07:26:00,24.6,21.6,30.68,SE,135,0.0,0.0,88,0.00,,---,0.00,VWS V13.01,2013-01-06 15:26:00,
2013-01-06 07:31:00,24.4,21.4,30.68,SE,135,0.0,0.0,88,0.00,,---,0.00,VWS V13.01,2013-01-06 15:31:00,
2013-01-06 07:36:00,24.3,21.2,30.68,SE,135,0.0,0.0,88,0.00,,---,0.00,VWS V13.01,2013-01-06 15:36:00,
2013-01-06 07:41:00,23.7,20.7,30.68,SE,135,0.0,0.0,88,0.00,,---,0.00,VWS V13.01,2013-01-06 15:41:00,
2013-01-06 07:46:00,23.5,20.8,30.68,SE,135,0.0,0.0,89,0.00,,---,0.00,VWS V13.01,2013-01-06 15:46:00,
2013-01-06 07:51:00,23.0,20.2,30.68,SE,135,0.0,0.0,89,0.00,,---,0.00,VWS V13.01,2013-01-06 15:51:00,
2013-01-06 07:56:00,22.8,20.3,30.68,SE,135,0.0,0.0,90,0.00,,---,0.00,VWS V13.01,2013-01-06 15:56:00,
2013-01-06 08:01:00,22.5,20.0,30.68,SE,135,0.0,0.0,90,0.00,,---,0.00,VWS V13.01,2013-01-06 16:01:00,
2013-01-06 08:06:00,22.8,20.6,30.68,SE,135,0.0,0.0,91,0.00,,---,0.00,VWS V13.01,2013-01-06 16:06:00,
2013-01-06 08:11:00,22.8,20.9,30.68,SE,135,0.0,0.0,92,0.00,,---,0.00,VWS V13.01,2013-01-06 16:11:00,
2013-01-06 08:16:00,22.8,21.1,30.68,SE,135,0.0,0.0,93,0.00,,---,0.00,VWS V13.01,2013-01-06 16:16:00,
2013-01-06 08:21:00,22.8,21.1,30.68,SE,135,0.0,0.0,93,0.00,,---,0.00,VWS V13.01,2013-01-06 16:21:00,
2013-01-06 08:26:00,22.8,21.4,30.68,SE,135,0.0,0.0,94,0.00,,---,0.00,VWS V13.01,2013-01-06 16:26:00,
2013-01-06 08:31:00,23.0,21.5,30.68,SE,135,0.0,0.0,94,0.00,,---,0.00,VWS V13.01,2013-01-06 16:31:00,
2013-01-06 08:36:00,23.2,21.7,30.68,SE,135,0.0,0.0,94,0.00,,---,0.00,VWS V13.01,2013-01-06 16:36:00,
2013-01-06 08:41:00,23.5,22.1,30.68,SE,135,0.0,0.0,94,0.00,,---,0.00,VWS V13.01,2013-01-06 16:41:00,
2013-01-06 08:46:00,23.7,22.2,30.68,SE,135,0.0,0.0,94,0.00,,---,0.00,VWS V13.01,2013-01-06 16:46:00,
2013-01-06 08:51:00,24.4,23.2,30.68,SE,135,0.0,0.0,95,0.00,,---,0.00,VWS V13.01,2013-01-06 16:51:00,
2013-01-06 08:56:00,24.6,23.4,30.68,SE,135,0.0,0.0,95,0.00,,---,0.00,VWS V13.01,2013-01-06 16:56:00,
2013-01-06 09:01:00,24.8,23.6,30.68,SE,135,0.0,0.0,95,0.00,,---,0.00,VWS V13.01,2013-01-06 17:01:00,
2013-01-06 09:06:00,25.0,23.2,30.71,SE,135,0.0,0.0,93,0.00,,---,0.00,VWS V13.01,2013-01-06 17:06:00,
2013-01-06 09:11:00,25.7,24.0,30.71,SE,135,2.7,2.7,93,0.00,,---,0.00,VWS V13.01,2013-01-06 17:11:00,
2013-01-06 09:16:00,26.1,23.8,30.71,SE,135,0.0,0.0,91,0.00,,---,0.00,VWS V13.01,2013-01-06 17:16:00,
2013-01-06 09:21:00,26.8,24.2,30.71,SE,135,3.1,3.1,90,0.00,,---,0.00,VWS V13.01,2013-01-06 17:21:00,
2013-01-06 09:26:00,27.5,24.7,30.71,SE,135,0.0,0.0,89,0.00,,---,0.00,VWS V13.01,2013-01-06 17:26:00,
2013-01-06 09:31:00,29.1,25.2,30.71,SE,135,0.0,0.0,85,0.00,,---,0.00,VWS V13.01,2013-01-06 17:31:00,
2013-01-06 09:36:00,30.4,25.0,30.71,SE,135,3.1,3.1,80,0.00,,---,0.00,VWS V13.01,2013-01-06 17:36:00,
2013-01-06 09:41:00,30.4,25.0,30.71,SE,135,0.0,0.0,80,0.00,,---,0.00,VWS V13.01,2013-01-06 17:41:00,
2013-01-06 09:46:00,32.7,24.4,30.71,SE,135,0.0,3.6,71,0.00,,---,0.00,VWS V13.01,2013-01-06 17:46:00,
2013-01-06 09:51:00,32.7,24.4,30.71,SE,135,2.7,2.7,71,0.00,,---,0.00,VWS V13.01,2013-01-06 17:51:00,
2013-01-06 09:56:00,33.8,21.8,30.71,SE,135,2.7,2.7,61,0.00,,---,0.00,VWS V13.01,2013-01-06 17:56:00,
2013-01-06 10:01:00,34.3,21.1,30.71,SE,135,2.2,2.2,58,0.00,,---,0.00,VWS V13.01,2013-01-06 18:01:00,
2013-01-06 10:06:00,35.1,21.4,30.71,SE,135,0.0,3.1,57,0.00,,---,0.00,VWS V13.01,2013-01-06 18:06:00,
2013-01-06 10:11:00,35.8,21.2,30.71,SE,135,0.0,2.7,55,0.00,,---,0.00,VWS V13.01,2013-01-06 18:11:00,
2013-01-06 10:16:00,36.7,21.6,30.71,SE,135,0.0,0.0,54,0.00,,---,0.00,VWS V13.01,2013-01-06 18:16:00,
2013-01-06 10:21:00,37.0,21.5,30.71,SE,135,2.7,3.6,53,0.00,,---,0.00,VWS V13.01,2013-01-06 18:21:00,
2013-01-06 10:26:00,37.0,21.5,30.71,SE,135,0.0,0.0,53,0.00,,---,0.00,VWS V13.01,2013-01-06 18:26:00,
2013-01-06 10:31:00,37.0,21.1,30.71,SE,135,0.0,0.0,52,0.00,,---,0.00,VWS V13.01,2013-01-06 18:31:00,
2013-01-06 10:36:00,36.3,20.4,30.71,SE,135,0.0,0.0,52,0.00,,---,0.00,VWS V13.01,2013-01-06 18:36:00,
2013-01-06 10:41:00,36.1,20.7,30.71,SE,135,0.0,0.0,53,0.00,,---,0.00,VWS V13.01,2013-01-06 18:41:00,
2013-01-06 10:46:00,35.1,20.5,30.71,SE,135,0.0,2.7,55,0.00,,---,0.00,VWS V13.01,2013-01-06 18:46:00,
2013-01-06 10:51:00,34.7,20.6,30.71,SE,135,3.1,3.1,56,0.00,,---,0.00,VWS V13.01,2013-01-06 18:51:00,
2013-01-06 10:56:00,34.3,21.1,30.71,SE,135,2.2,4.0,58,0.00,,---,0.00,VWS V13.01,2013-01-06 18:56:00,
2013-01-06 11:01:00,34.3,21.5,30.71,SE,135,4.0,4.9,59,0.00,,---,0.00,VWS V13.01,2013-01-06 19:01:00,
2013-01-06 11:06:00,34.5,21.7,30.68,SE,135,3.1,3.1,59,0.00,,---,0.00,VWS V13.01,2013-01-06 19:06:00,
2013-01-06 11:11:00,34.5,21.7,30.68,SE,135,2.2,2.7,59,0.00,,---,0.00,VWS V13.01,2013-01-06 19:11:00,
2013-01-06 11:16:00,34.7,21.9,30.68,SE,135,2.2,2.7,59,0.00,,---,0.00,VWS V13.01,2013-01-06 19:16:00,
2013-01-06 11:21:00,34.9,22.0,30.68,SE,135,2.7,2.7,59,0.00,,---,0.00,VWS V13.01,2013-01-06 19:21:00,
2013-01-06 11:26:00,35.4,22.1,30.68,SE,135,3.6,3.6,58,0.00,,---,0.00,VWS V13.01,2013-01-06 19:26:00,
2013-01-06 11:30:00,35.6,21.9,30.68,SE,135,2.2,2.2,57,0.00,,---,0.00,VWS V13.01,2013-01-06 19:30:00,
2013-01-06 11:35:00,36.0,22.2,30.68,SE,135,2.2,2.2,57,0.00,,---,0.00,VWS V13.01,2013-01-06 19:35:00,
2013-01-06 11:45:00,37.0,22.4,30.68,SE,135,3.1,4.9,55,0.00,,---,0.00,VWS V13.01,2013-01-06 19:45:00,
2013-01-06 11:51:00,37.9,22.8,30.68,SE,135,2.2,2.2,54,0.00,,---,0.00,VWS V13.01,2013-01-06 19:51:00,
2013-01-06 11:56:00,38.8,23.2,30.68,SE,135,2.2,4.9,53,0.00,,---,0.00,VWS V13.01,2013-01-06 19:56:00,
2013-01-06 12:01:00,40.3,23.1,30.68,SE,135,0.0,3.1,50,0.00,,---,0.00,VWS V13.01,2013-01-06 20:01:00,
2013-01-06 12:06:00,41.0,23.3,30.68,SE,135,0.0,2.7,49,0.00,,---,0.00,VWS V13.01,2013-01-06 20:06:00,
2013-01-06 12:11:00,41.7,23.5,30.68,SE,135,0.0,0.0,48,0.00,,---,0.00,VWS V13.01,2013-01-06 20:11:00,
2013-01-06 12:13:00,42.1,23.8,30.68,SE,135,2.2,3.1,48,0.00,,---,0.00,VWS V13.01,2013-01-06 20:13:00,
2013-01-06 12:18:00,41.9,23.7,30.68,SE,135,3.6,4.0,48,0.00,,---,0.00,VWS V13.01,2013-01-06 20:18:00,
2013-01-06 12:23:00,40.3,22.7,30.68,East,90,2.7,3.1,49,0.00,,---,0.00,VWS V13.01,2013-01-06 20:23:00,
2013-01-06 12:28:00,38.8,21.8,30.68,NE,45,4.5,4.5,50,0.00,,---,0.00,VWS V13.01,2013-01-06 20:28:00,
2013-01-06 12:33:00,38.7,22.6,30.68,NE,45,0.0,0.0,52,0.00,,---,0.00,VWS V13.01,2013-01-06 20:33:00,
2013-01-06 12:38:00,39.4,22.8,30.68,NE,45,2.7,2.7,51,0.00,,---,0.00,VWS V13.01,2013-01-06 20:38:00,
2013-01-06 12:43:00,39.2,22.6,30.65,NE,45,2.2,2.7,51,0.00,,---,0.00,VWS V13.01,2013-01-06 20:43:00,
2013-01-06 12:48:00,39.6,22.9,30.65,NE,45,4.0,5.8,51,0.00,,---,0.00,VWS V13.01,2013-01-06 20:48:00,
2013-01-06 12:53:00,39.4,22.8,30.65,NE,45,3.6,5.8,51,0.00,,---,0.00,VWS V13.01,2013-01-06 20:53:00,
2013-01-06 12:58:00,39.7,23.1,30.65,NE,45,6.3,6.3,51,0.00,,---,0.00,VWS V13.01,2013-01-06 20:58:00,
2013-01-06 13:01:00,40.1,23.4,30.65,NE,45,0.0,3.1,51,0.00,,---,0.00,VWS V13.01,2013-01-06 21:01:00,
2013-01-06 13:06:00,41.0,23.3,30.65,NE,45,4.5,4.5,49,0.00,,---,0.00,VWS V13.01,2013-01-06 21:06:00,
2013-01-06 13:11:00,41.4,23.6,30.65,NE,45,2.7,2.7,49,0.00,,---,0.00,VWS V13.01,2013-01-06 21:11:00,
2013-01-06 13:16:00,42.3,24.0,30.65,NE,45,0.0,2.7,48,0.00,,---,0.00,VWS V13.01,2013-01-06 21:16:00,
2013-01-06 13:21:00,43.5,25.1,30.65,NE,45,0.0,0.0,48,0.00,,---,0.00,VWS V13.01,2013-01-06 21:21:00,
2013-01-06 13:26:00,43.9,24.5,30.65,NE,45,2.2,3.1,46,0.00,,---,0.00,VWS V13.01,2013-01-06 21:26:00,
2013-01-06 13:31:00,44.1,24.6,30.65,ESE,112,0.0,0.0,46,0.00,,---,0.00,VWS V13.01,2013-01-06 21:31:00,
2013-01-06 13:36:00,44.2,24.3,30.65,ESE,112,2.7,2.7,45,0.00,,---,0.00,VWS V13.01,2013-01-06 21:36:00,
2013-01-06 13:41:00,44.2,24.3,30.65,ESE,112,2.7,2.7,45,0.00,,---,0.00,VWS V13.01,2013-01-06 21:41:00,
2013-01-06 13:46:00,44.8,24.2,30.65,South,180,2.7,2.7,44,0.00,,---,0.00,VWS V13.01,2013-01-06 21:46:00,
2013-01-06 13:51:00,45.0,23.8,30.65,SE,135,3.1,4.0,43,0.00,,---,0.00,VWS V13.01,2013-01-06 21:51:00,
2013-01-06 13:56:00,45.5,24.3,30.62,SE,135,2.7,2.7,43,0.00,,---,0.00,VWS V13.01,2013-01-06 21:56:00,
2013-01-06 14:01:00,45.3,24.2,30.62,SE,135,2.7,2.7,43,0.00,,---,0.00,VWS V13.01,2013-01-06 22:01:00,
2013-01-06 14:06:00,45.7,24.5,30.62,SE,135,0.0,0.0,43,0.00,,---,0.00,VWS V13.01,2013-01-06 22:06:00,
2013-01-06 14:11:00,45.7,24.5,30.62,NE,45,0.0,0.0,43,0.00,,---,0.00,VWS V13.01,2013-01-06 22:11:00,
2013-01-06 14:16:00,46.2,24.4,30.62,NE,45,0.0,0.0,42,0.00,,---,0.00,VWS V13.01,2013-01-06 22:16:00,
2013-01-06 14:21:00,46.4,24.6,30.65,NE,45,0.0,0.0,42,0.00,,---,0.00,VWS V13.01,2013-01-06 22:21:00,
2013-01-06 14:26:00,46.4,24.6,30.65,NE,45,2.2,2.2,42,0.00,,---,0.00,VWS V13.01,2013-01-06 22:26:00,
2013-01-06 14:31:00,46.0,24.2,30.65,NE,45,0.0,0.0,42,0.00,,---,0.00,VWS V13.01,2013-01-06 22:31:00,
2013-01-06 14:36:00,45.5,23.8,30.65,NE,45,0.0,3.1,42,0.00,,---,0.00,VWS V13.01,2013-01-06 22:36:00,
2013-01-06 14:41:00,45.5,23.8,30.62,NE,45,0.0,0.0,42,0.00,,---,0.00,VWS V13.01,2013-01-06 22:41:00,
2013-01-06 14:46:00,45.9,24.1,30.62,NE,45,0.0,0.0,42,0.00,,---,0.00,VWS V13.01,2013-01-06 22:46:00,
2013-01-06 14:51:00,45.9,24.1,30.62,NE,45,0.0,0.0,42,0.00,,---,0.00,VWS V13.01,2013-01-06 22:51:00,
2013-01-06 14:56:00,45.5,23.8,30.62,NE,45,0.0,0.0,42,0.00,,---,0.00,VWS V13.01,2013-01-06 22:56:00,
2013-01-06 15:01:00,45.1,23.4,30.65,NE,45,0.0,0.0,42,0.00,,---,0.00,VWS V13.01,2013-01-06 23:01:00,
2013-01-06 15:06:00,44.6,22.9,30.65,NE,45,0.0,2.2,42,0.00,,---,0.00,VWS V13.01,2013-01-06 23:06:00,
2013-01-06 15:11:00,43.5,22.5,30.65,NE,45,2.2,2.2,43,0.00,,---,0.00,VWS V13.01,2013-01-06 23:11:00,
2013-01-06 15:16:00,42.3,22.5,30.65,NE,45,2.7,2.7,45,0.00,,---,0.00,VWS V13.01,2013-01-06 23:16:00,
2013-01-06 15:21:00,42.3,22.5,30.65,ESE,112,0.0,0.0,45,0.00,,---,0.00,VWS V13.01,2013-01-06 23:21:00,
2013-01-06 15:26:00,41.4,22.7,30.62,ESE,112,0.0,0.0,47,0.00,,---,0.00,VWS V13.01,2013-01-06 23:26:00,
2013-01-06 15:31:00,41.0,22.8,30.62,ESE,112,0.0,0.0,48,0.00,,---,0.00,VWS V13.01,2013-01-06 23:31:00,
2013-01-06 15:36:00,41.0,22.8,30.62,ESE,112,3.1,3.1,48,0.00,,---,0.00,VWS V13.01,2013-01-06 23:36:00,
2013-01-06 15:41:00,40.1,23.0,30.62,ESE,112,0.0,2.7,50,0.00,,---,0.00,VWS V13.01,2013-01-06 23:41:00,
2013-01-06 15:46:00,39.9,23.3,30.62,ESE,112,2.2,2.2,51,0.00,,---,0.00,VWS V13.01,2013-01-06 23:46:00,
2013-01-06 15:51:00,39.6,22.9,30.62,ESE,112,0.0,0.0,51,0.00,,---,0.00,VWS V13.01,2013-01-06 23:51:00,
2013-01-06 15:56:00,39.4,22.8,30.62,ESE,112,2.2,2.2,51,0.00,,---,0.00,VWS V13.01,2013-01-06 23:56:00,
2013-01-06 16:01:00,39.4,22.8,30.62,ESE,112,0.0,0.0,51,0.00,,---,0.00,VWS V13.01,2013-01-07 00:01:00,
2013-01-06 16:06:00,39.4,22.8,30.62,ESE,112,0.0,0.0,51,0.00,,---,0.00,VWS V13.01,2013-01-07 00:06:00,
2013-01-06 16:11:00,38.1,22.5,30.62,ESE,112,0.0,0.0,53,0.00,,---,0.00,VWS V13.01,2013-01-07 00:11:00,
2013-01-06 16:16:00,37.9,22.8,30.62,ESE,112,0.0,0.0,54,0.00,,---,0.00,VWS V13.01,2013-01-07 00:16:00,
2013-01-06 16:21:00,36.9,22.2,30.62,ESE,112,0.0,0.0,55,0.00,,---,0.00,VWS V13.01,2013-01-07 00:21:00,
2013-01-06 16:26:00,36.1,22.4,30.62,ESE,112,0.0,0.0,57,0.00,,---,0.00,VWS V13.01,2013-01-07 00:26:00,
2013-01-06 16:31:00,35.8,22.5,30.62,ESE,112,0.0,2.7,58,0.00,,---,0.00,VWS V13.01,2013-01-07 00:31:00,
2013-01-06 16:36:00,35.4,22.5,30.62,ESE,112,0.0,0.0,59,0.00,,---,0.00,VWS V13.01,2013-01-07 00:36:00,
2013-01-06 16:41:00,34.5,22.1,30.65,ESE,112,0.0,0.0,60,0.00,,---,0.00,VWS V13.01,2013-01-07 00:41:00,
2013-01-06 16:46:00,34.3,22.7,30.65,ESE,112,0.0,0.0,62,0.00,,---,0.00,VWS V13.01,2013-01-07 00:46:00,
2013-01-06 16:51:00,33.4,22.2,30.62,ESE,112,0.0,0.0,63,0.00,,---,0.00,VWS V13.01,2013-01-07 00:51:00,
2013-01-06 16:56:00,33.1,22.6,30.62,ESE,112,0.0,0.0,65,0.00,,---,0.00,VWS V13.01,2013-01-07 00:56:00,
2013-01-06 17:01:00,33.1,22.6,30.62,ESE,112,0.0,0.0,65,0.00,,---,0.00,VWS V13.01,2013-01-07 01:01:00,
2013-01-06 17:06:00,32.9,23.2,30.62,ESE,112,0.0,0.0,67,0.00,,---,0.00,VWS V13.01,2013-01-07 01:06:00,
2013-01-06 17:11:00,32.5,22.8,30.62,ESE,112,0.0,0.0,67,0.00,,---,0.00,VWS V13.01,2013-01-07 01:11:00,
2013-01-06 17:16:00,32.2,22.8,30.62,ESE,112,0.0,0.0,68,0.00,,---,0.00,VWS V13.01,2013-01-07 01:16:00,
2013-01-06 17:21:00,31.8,22.5,30.62,ESE,112,0.0,0.0,68,0.00,,---,0.00,VWS V13.01,2013-01-07 01:21:00,
2013-01-06 17:26:00,31.1,21.8,30.62,ESE,112,0.0,0.0,68,0.00,,---,0.00,VWS V13.01,2013-01-07 01:26:00,
2013-01-06 17:31:00,30.7,22.5,30.62,ESE,112,0.0,0.0,71,0.00,,---,0.00,VWS V13.01,2013-01-07 01:31:00,
2013-01-06 17:36:00,30.4,22.1,30.62,ESE,112,0.0,0.0,71,0.00,,---,0.00,VWS V13.01,2013-01-07 01:36:00,
2013-01-06 17:41:00,29.7,21.8,30.62,ESE,112,0.0,0.0,72,0.00,,---,0.00,VWS V13.01,2013-01-07 01:41:00,
2013-01-06 17:46:00,29.3,22.1,30.65,ESE,112,0.0,0.0,74,0.00,,---,0.00,VWS V13.01,2013-01-07 01:46:00,
2013-01-06 17:51:00,28.9,22.0,30.65,ESE,112,0.0,0.0,75,0.00,,---,0.00,VWS V13.01,2013-01-07 01:51:00,
2013-01-06 17:56:00,28.8,22.2,30.65,ESE,112,0.0,0.0,76,0.00,,---,0.00,VWS V13.01,2013-01-07 01:56:00,
2013-01-06 18:01:00,28.8,22.5,30.65,ESE,112,0.0,0.0,77,0.00,,---,0.00,VWS V13.01,2013-01-07 02:01:00,
2013-01-06 18:06:00,28.6,22.3,30.65,ESE,112,0.0,0.0,77,0.00,,---,0.00,VWS V13.01,2013-01-07 02:06:00,
2013-01-06 18:11:00,28.6,22.3,30.65,ESE,112,0.0,0.0,77,0.00,,---,0.00,VWS V13.01,2013-01-07 02:11:00,
2013-01-06 18:16:00,28.6,22.6,30.65,ESE,112,0.0,0.0,78,0.00,,---,0.00,VWS V13.01,2013-01-07 02:16:00,
2013-01-06 18:21:00,28.6,22.6,30.65,ESE,112,0.0,0.0,78,0.00,,---,0.00,VWS V13.01,2013-01-07 02:21:00,
2013-01-06 18:26:00,28.6,22.6,30.65,ESE,112,0.0,0.0,78,0.00,,---,0.00,VWS V13.01,2013-01-07 02:26:00,
2013-01-06 18:31:00,28.6,22.6,30.65,ESE,112,0.0,0.0,78,0.00,,---,0.00,VWS V13.01,2013-01-07 02:31:00,
2013-01-06 18:36:00,28.6,22.6,30.65,ESE,112,0.0,0.0,78,0.00,,---,0.00,VWS V13.01,2013-01-07 02:36:00,
2013-01-06 18:41:00,28.6,22.6,30.65,ESE,112,0.0,0.0,78,0.00,,---,0.00,VWS V13.01,2013-01-07 02:41:00,
2013-01-06 18:46:00,28.6,22.6,30.65,ESE,112,0.0,0.0,78,0.00,,---,0.00,VWS V13.01,2013-01-07 02:46:00,
2013-01-06 18:51:00,28.6,22.6,30.65,ESE,112,0.0,0.0,78,0.00,,---,0.00,VWS V13.01,2013-01-07 02:51:00,
2013-01-06 18:56:00,28.6,22.6,30.65,ESE,112,0.0,0.0,78,0.00,,---,0.00,VWS V13.01,2013-01-07 02:56:00,
2013-01-06 19:01:00,28.6,22.6,30.65,ESE,112,0.0,0.0,78,0.00,,---,0.00,VWS V13.01,2013-01-07 03:01:00,
2013-01-06 19:06:00,28.6,22.6,30.65,ESE,112,0.0,0.0,78,0.00,,---,0.00,VWS V13.01,2013-01-07 03:06:00,
2013-01-06 19:11:00,28.6,22.6,30.65,ESE,112,0.0,0.0,78,0.00,,---,0.00,VWS V13.01,2013-01-07 03:11:00,
2013-01-06 19:16:00,28.6,22.6,30.65,ESE,112,0.0,0.0,78,0.00,,---,0.00,VWS V13.01,2013-01-07 03:16:00,
2013-01-06 19:21:00,28.6,22.6,30.65,ESE,112,0.0,0.0,78,0.00,,---,0.00,VWS V13.01,2013-01-07 03:21:00,
2013-01-06 19:26:00,28.6,22.6,30.65,ESE,112,0.0,0.0,78,0.00,,---,0.00,VWS V13.01,2013-01-07 03:26:00,
2013-01-06 19:31:00,28.6,22.6,30.65,ESE,112,0.0,0.0,78,0.00,,---,0.00,VWS V13.01,2013-01-07 03:31:00,
2013-01-06 19:36:00,28.6,22.6,30.65,ESE,112,0.0,0.0,78,0.00,,---,0.00,VWS V13.01,2013-01-07 03:36:00,
2013-01-06 19:41:00,28.6,22.6,30.65,ESE,112,0.0,0.0,78,0.00,,---,0.00,VWS V13.01,2013-01-07 03:41:00,
2013-01-06 19:46:00,28.6,22.6,30.65,ESE,112,0.0,0.0,78,0.00,,---,0.00,VWS V13.01,2013-01-07 03:46:00,
2013-01-06 19:51:00,28.6,22.6,30.65,ESE,112,0.0,0.0,78,0.00,,---,0.00,VWS V13.01,2013-01-07 03:51:00,
2013-01-06 19:56:00,28.6,22.6,30.65,ESE,112,0.0,0.0,78,0.00,,---,0.00,VWS V13.01,2013-01-07 03:56:00,
2013-01-06 20:01:00,28.6,22.6,30.65,ESE,112,0.0,0.0,78,0.00,,---,0.00,VWS V13.01,2013-01-07 04:01:00,
2013-01-06 20:06:00,28.6,22.6,30.65,ESE,112,0.0,0.0,78,0.00,,---,0.00,VWS V13.01,2013-01-07 04:06:00,
2013-01-06 20:11:00,28.6,22.6,30.62,ESE,112,0.0,0.0,78,0.00,,---,0.00,VWS V13.01,2013-01-07 04:11:00,
2013-01-06 20:16:00,28.6,22.6,30.62,ESE,112,0.0,0.0,78,0.00,,---,0.00,VWS V13.01,2013-01-07 04:16:00,
2013-01-06 20:21:00,28.6,22.6,30.62,ESE,112,0.0,0.0,78,0.00,,---,0.00,VWS V13.01,2013-01-07 04:21:00,
2013-01-06 20:26:00,28.6,22.6,30.62,ESE,112,0.0,0.0,78,0.00,,---,0.00,VWS V13.01,2013-01-07 04:26:00,
2013-01-06 20:31:00,28.6,22.6,30.62,ESE,112,0.0,0.0,78,0.00,,---,0.00,VWS V13.01,2013-01-07 04:31:00,
2013-01-06 20:36:00,28.6,22.6,30.62,ESE,112,0.0,0.0,78,0.00,,---,0.00,VWS V13.01,2013-01-07 04:36:00,
2013-01-06 20:41:00,28.6,22.6,30.62,ESE,112,0.0,0.0,78,0.00,,---,0.00,VWS V13.01,2013-01-07 04:41:00,
2013-01-06 20:46:00,28.6,22.6,30.62,ESE,112,0.0,0.0,78,0.00,,---,0.00,VWS V13.01,2013-01-07 04:46:00,
2013-01-06 20:51:00,28.6,22.6,30.62,ESE,112,0.0,0.0,78,0.00,,---,0.00,VWS V13.01,2013-01-07 04:51:00,
2013-01-06 20:56:00,28.6,22.6,30.65,ESE,112,0.0,0.0,78,0.00,,---,0.00,VWS V13.01,2013-01-07 04:56:00,
2013-01-06 21:00:00,28.6,22.6,30.65,ESE,112,0.0,0.0,78,0.00,,---,0.00,VWS V13.01,2013-01-07 05:00:00,
2013-01-06 21:01:00,28.6,22.6,30.65,ESE,112,0.0,0.0,78,0.00,,---,0.00,VWS V13.01,2013-01-07 05:01:00,
2013-01-06 21:06:00,28.6,22.6,30.65,ESE,112,0.0,0.0,78,0.00,,---,0.00,VWS V13.01,2013-01-07 05:06:00,
2013-01-06 21:11:00,28.6,22.6,30.65,ESE,112,0.0,0.0,78,0.00,,---,0.00,VWS V13.01,2013-01-07 05:11:00,
2013-01-06 21:16:00,28.6,22.6,30.65,ESE,112,0.0,0.0,78,0.00,,---,0.00,VWS V13.01,2013-01-07 05:16:00,
2013-01-06 21:21:00,28.6,22.6,30.65,ESE,112,0.0,0.0,78,0.00,,---,0.00,VWS V13.01,2013-01-07 05:21:00,
2013-01-06 21:26:00,28.6,22.6,30.65,ESE,112,0.0,0.0,78,0.00,,---,0.00,VWS V13.01,2013-01-07 05:26:00,
2013-01-06 21:32:00,28.6,22.6,30.65,ESE,112,0.0,0.0,78,0.00,,---,0.00,VWS V13.01,2013-01-07 05:32:00,
2013-01-06 21:37:00,28.6,22.6,30.65,ESE,112,0.0,0.0,78,0.00,,---,0.00,VWS V13.01,2013-01-07 05:37:00,
2013-01-06 21:42:00,28.6,22.6,30.65,ESE,112,0.0,0.0,78,0.00,,---,0.00,VWS V13.01,2013-01-07 05:42:00,
2013-01-06 21:47:00,28.6,22.6,30.65,ESE,112,0.0,0.0,78,0.00,,---,0.00,VWS V13.01,2013-01-07 05:47:00,
2013-01-06 21:52:00,28.6,22.6,30.65,ESE,112,0.0,0.0,78,0.00,,---,0.00,VWS V13.01,2013-01-07 05:52:00,
2013-01-06 21:57:00,28.6,22.6,30.65,ESE,112,0.0,0.0,78,0.00,,---,0.00,VWS V13.01,2013-01-07 05:57:00,
2013-01-06 22:02:00,28.6,22.6,30.65,ESE,112,0.0,0.0,78,0.00,,---,0.00,VWS V13.01,2013-01-07 06:02:00,
2013-01-06 22:07:00,28.6,22.6,30.65,ESE,112,0.0,0.0,78,0.00,,---,0.00,VWS V13.01,2013-01-07 06:07:00,
2013-01-06 22:11:00,28.6,22.6,30.65,ESE,112,0.0,0.0,78,0.00,,---,0.00,VWS V13.01,2013-01-07 06:11:00,
2013-01-06 22:16:00,28.6,22.6,30.65,ESE,112,0.0,0.0,78,0.00,,---,0.00,VWS V13.01,2013-01-07 06:16:00,
2013-01-06 22:21:00,28.6,22.6,30.65,ESE,112,0.0,0.0,78,0.00,,---,0.00,VWS V13.01,2013-01-07 06:21:00,
2013-01-06 22:26:00,28.6,22.6,30.65,ESE,112,0.0,0.0,78,0.00,,---,0.00,VWS V13.01,2013-01-07 06:26:00,
2013-01-06 22:31:00,28.6,22.6,30.65,ESE,112,0.0,0.0,78,0.00,,---,0.00,VWS V13.01,2013-01-07 06:31:00,
2013-01-06 22:36:00,28.6,22.6,30.65,ESE,112,0.0,0.0,78,0.00,,---,0.00,VWS V13.01,2013-01-07 06:36:00,
2013-01-06 22:41:00,28.6,22.6,30.65,ESE,112,0.0,0.0,78,0.00,,---,0.00,VWS V13.01,2013-01-07 06:41:00,
2013-01-06 22:46:00,28.6,22.6,30.65,ESE,112,0.0,0.0,78,0.00,,---,0.00,VWS V13.01,2013-01-07 06:46:00,
2013-01-06 22:51:00,28.6,22.6,30.65,ESE,112,0.0,0.0,78,0.00,,---,0.00,VWS V13.01,2013-01-07 06:51:00,
2013-01-06 22:56:00,28.6,22.6,30.65,ESE,112,0.0,0.0,78,0.00,,---,0.00,VWS V13.01,2013-01-07 06:56:00,
2013-01-06 23:01:00,28.6,22.6,30.65,ESE,112,0.0,0.0,78,0.00,,---,0.00,VWS V13.01,2013-01-07 07:01:00,
2013-01-06 23:06:00,28.6,22.6,30.65,ESE,112,0.0,0.0,78,0.00,,---,0.00,VWS V13.01,2013-01-07 07:06:00,
2013-01-06 23:11:00,28.6,22.6,30.65,ESE,112,0.0,0.0,78,0.00,,---,0.00,VWS V13.01,2013-01-07 07:11:00,
2013-01-06 23:16:00,28.6,22.6,30.65,ESE,112,0.0,0.0,78,0.00,,---,0.00,VWS V13.01,2013-01-07 07:16:00,
2013-01-06 23:21:00,28.6,22.6,30.65,ESE,112,0.0,0.0,78,0.00,,---,0.00,VWS V13.01,2013-01-07 07:21:00,
2013-01-06 23:26:00,28.6,22.6,30.65,ESE,112,0.0,0.0,78,0.00,,---,0.00,VWS V13.01,2013-01-07 07:26:00,
2013-01-06 23:31:00,28.6,22.6,30.65,ESE,112,0.0,0.0,78,0.00,,---,0.00,VWS V13.01,2013-01-07 07:31:00,
2013-01-06 23:36:00,28.6,22.6,30.65,ESE,112,0.0,0.0,78,0.00,,---,0.00,VWS V13.01,2013-01-07 07:36:00,
2013-01-06 23:41:00,28.6,22.6,30.65,ESE,112,0.0,0.0,78,0.00,,---,0.00,VWS V13.01,2013-01-07 07:41:00,
2013-01-06 23:46:00,28.6,22.6,30.62,ESE,112,0.0,0.0,78,0.00,,---,0.00,VWS V13.01,2013-01-07 07:46:00,
2013-01-06 23:51:00,28.6,22.6,30.62,ESE,112,0.0,0.0,78,0.00,,---,0.00,VWS V13.01,2013-01-07 07:51:00,
2013-01-06 23:56:00,28.6,22.6,30.62,ESE,112,0.0,0.0,78,0.00,,---,0.00,VWS V13.01,2013-01-07 07:56:00,